Stations météo

réclame
Mon MeteoGroup
Cap Corse, France (7785): Température de l'air & dewpoint: 16.10.2018 16:00:00 - 22.10.2018 16:00:00 (CEST)Cap Corse, France (7785): Vitesse du vent & gusts: 16.10.2018 16:00:00 - 22.10.2018 16:00:00 (CEST)Cap Corse, France (7785): Direction du vent: 16.10.2018 16:00:00 - 22.10.2018 16:00:00 (CEST)Cap Corse, France (7785): reduced air pressure: 16.10.2018 16:00:00 - 22.10.2018 16:00:00 (CEST)Cap Corse, France (7785): visibility: 16.10.2018 16:00:00 - 22.10.2018 16:00:00 (CEST)Cap Corse, France (7785): Quantités de précipitations: 16.10.2018 16:00:00 - 22.10.2018 16:00:00 (CEST)
Date & Time tt [°C] td [°C] ff [km/h] ff [knt] fx [km/h] fx [knt] dd ppp [hPa] vv [km] rr [mm]
22.10.2018 16:00:00 17,2 6,1 9 5 19 10 E 1018,2 - 0,0
22.10.2018 15:00:00 17,5 6,1 15 8 29 15 ENE 1018,4 - 0,0
22.10.2018 14:00:00 18,1 6,9 11 6 21 12 ENE 1018,8 20 0,0
22.10.2018 13:00:00 17,9 6,1 8 4 26 14 ENE 1019,5 - 0,0
22.10.2018 12:00:00 17,7 5,3 16 9 44 24 ENE 1020,0 - 0,0
22.10.2018 11:00:00 16,5 4,5 35 19 64 35 E 1019,9 15 0,0
22.10.2018 10:00:00 16,1 4,2 43 23 68 37 E 1019,9 - 0,0
22.10.2018 09:00:00 15,3 4,6 40 21 70 38 E 1019,5 - 0,0
22.10.2018 08:00:00 15,3 3,4 37 20 67 36 E 1018,9 15 0,0
22.10.2018 07:00:00 15,2 3,6 41 22 64 34 E 1018,7 - 0,0
22.10.2018 06:00:00 15,2 4,0 45 24 74 40 E 1018,7 - 0,0
22.10.2018 05:00:00 15,3 4,6 51 28 95 51 E 1018,5 12 0,0
22.10.2018 04:00:00 15,1 2,6 69 38 94 51 E 1017,9 - 0,0
22.10.2018 03:00:00 14,8 3,3 47 26 88 47 E 1019,6 - 0,0
22.10.2018 02:00:00 15,8 4,2 55 30 93 50 E 1019,6 - 0,0
22.10.2018 01:00:00 15,8 1,5 53 29 95 51 E 1019,9 - 0,0
22.10.2018 00:00:00 16,7 5,0 58 32 84 45 E 1019,1 - 0,0
21.10.2018 23:00:00 15,8 7,8 57 31 94 51 E 1018,8 - 0,0
21.10.2018 22:00:00 17,5 10,8 55 30 79 43 E 1017,6 - 0,0
21.10.2018 21:00:00 18,8 14,5 11 6 16 9 E 1017,0 - 0,0
21.10.2018 20:00:00 18,1 14,2 5 3 10 5 NNW 1016,3 10 0,0
21.10.2018 19:00:00 18,1 14,2 10 5 15 8 W 1015,6 - 0,0
21.10.2018 18:00:00 20,4 15,2 11 6 23 12 W 1015,2 - 0,0
21.10.2018 17:00:00 21,3 15,2 15 8 28 15 WSW 1015,5 12 0,0
21.10.2018 16:00:00 22,2 15,5 18 10 27 14 W 1016,0 - 0,0
21.10.2018 15:00:00 22,0 15,8 21 11 32 17 W 1016,5 - 0,0
21.10.2018 14:00:00 22,3 15,4 23 12 43 23 W 1017,1 12 0,0
21.10.2018 13:00:00 21,9 16,8 24 13 47 26 W 1017,8 - 0,0
21.10.2018 12:00:00 21,7 16,0 26 14 44 24 WSW 1018,6 - 0,0
21.10.2018 11:00:00 21,1 15,6 25 13 44 24 SW 1019,2 - 0,0
21.10.2018 10:00:00 20,2 15,8 18 10 47 25 WSW 1018,7 - 0,0
21.10.2018 09:00:00 19,5 16,0 23 13 44 24 WSW 1019,0 - 0,0
21.10.2018 08:00:00 18,3 14,4 18 10 36 20 WSW 1019,0 12 0,0
21.10.2018 07:00:00 18,7 13,3 13 7 30 16 SSW 1019,1 - 0,0
21.10.2018 06:00:00 18,2 15,3 19 10 25 13 WSW 1019,8 - 0,0
21.10.2018 05:00:00 17,9 14,6 14 8 20 11 WSW 1020,1 15 0,0
21.10.2018 04:00:00 17,9 14,8 12 6 16 9 WSW 1020,5 - 0,0
21.10.2018 03:00:00 17,7 14,4 6 3 10 6 SW 1021,1 - 0,0
21.10.2018 02:00:00 18,0 13,7 4 2 8 4 WSW 1021,3 - 0,0
21.10.2018 01:00:00 18,1 11,2 3 2 8 4 SW 1021,9 - 0,0
21.10.2018 00:00:00 18,8 8,4 4 2 9 5 NE 1022,1 - 0,0
20.10.2018 23:00:00 18,0 8,8 0 0 10 5 N 1022,2 - 0,0
20.10.2018 22:00:00 18,6 12,6 9 5 15 8 E 1021,9 - 0,0
20.10.2018 21:00:00 18,9 9,1 12 6 16 8 NE 1021,6 - 0,0
20.10.2018 20:00:00 19,3 10,6 9 5 16 9 NE 1021,5 15 0,0
20.10.2018 19:00:00 18,7 9,7 11 6 20 11 E 1021,2 - 0,0
20.10.2018 18:00:00 19,1 11,9 12 7 17 9 E 1020,9 - 0,0
20.10.2018 17:00:00 21,0 15,3 11 6 15 8 E 1021,0 12 0,0
20.10.2018 16:00:00 22,1 15,9 11 6 15 8 E 1021,2 - 0,0
20.10.2018 15:00:00 22,0 15,4 13 7 16 9 E 1021,4 - 0,0
20.10.2018 14:00:00 22,5 17,4 11 6 15 8 E 1021,8 15 0,0
20.10.2018 13:00:00 22,6 15,4 8 5 14 8 ENE 1022,4 - 0,0
20.10.2018 12:00:00 22,4 15,7 10 5 16 9 ENE 1022,7 - 0,0
20.10.2018 11:00:00 21,9 15,5 10 5 14 8 E 1022,0 15 0,0
20.10.2018 10:00:00 21,7 16,0 9 5 12 6 E 1021,4 - 0,0
20.10.2018 09:00:00 20,4 13,1 7 4 15 8 E 1021,0 - 0,0
20.10.2018 08:00:00 18,1 11,9 11 6 16 9 ESE 1020,2 15 0,0
20.10.2018 07:00:00 18,3 13,6 12 6 16 9 E 1019,9 - 0,0
20.10.2018 06:00:00 17,9 12,8 6 3 9 5 E 1020,1 - 0,0
20.10.2018 05:00:00 18,7 13,8 5 3 8 4 NE 1019,9 - 0,0
20.10.2018 04:00:00 18,7 13,8 0 0 13 7 N 1019,8 - 0,0
20.10.2018 03:00:00 18,9 14,6 10 5 20 11 ESE 1019,8 - 0,0
20.10.2018 02:00:00 18,7 14,2 7 4 15 8 E 1019,7 - 0,0
20.10.2018 01:00:00 19,3 14,3 10 5 13 7 E 1019,6 - 0,0
20.10.2018 00:00:00 19,1 14,6 8 4 10 5 E 1019,3 - 0,0
19.10.2018 23:00:00 19,6 15,3 9 5 26 14 E 1019,1 - 0,0
19.10.2018 22:00:00 20,8 14,9 16 9 29 15 S 1018,6 - 0,0
19.10.2018 21:00:00 20,4 15,2 5 3 14 7 SSW 1018,0 - 0,0
19.10.2018 20:00:00 20,9 15,2 9 5 26 14 SSW 1017,6 15 0,0
19.10.2018 19:00:00 21,7 13,1 22 12 34 18 SE 1016,7 - 0,0
19.10.2018 18:00:00 21,2 14,6 23 13 31 17 SE 1016,0 - 0,0
19.10.2018 17:00:00 22,5 16,5 18 10 38 21 ESE 1016,0 15 0,0
19.10.2018 16:00:00 22,9 15,5 27 15 41 22 ESE 1016,0 - 0,0
19.10.2018 15:00:00 23,0 17,0 20 11 37 20 E 1015,7 - 0,0
19.10.2018 14:00:00 21,9 15,7 23 12 30 16 E 1016,2 15 0,0
19.10.2018 13:00:00 22,0 15,1 20 11 31 17 E 1016,6 - 0,0
19.10.2018 12:00:00 21,7 14,3 26 14 34 18 E 1017,0 - 0,0
19.10.2018 11:00:00 21,6 14,5 23 13 36 20 E 1016,7 15 0,0
19.10.2018 10:00:00 21,4 14,5 22 12 36 19 E 1016,5 - 0,0
19.10.2018 09:00:00 20,3 15,9 25 14 35 19 ESE 1016,1 - 0,0
19.10.2018 08:00:00 18,7 14,8 22 12 38 21 ESE 1015,2 15 0,0
19.10.2018 07:00:00 19,0 14,5 30 16 40 21 ESE 1015,0 - 0,0
19.10.2018 06:00:00 19,2 15,3 27 15 40 21 ESE 1014,9 - 0,0
19.10.2018 05:00:00 19,3 15,2 25 13 40 22 E 1014,6 12 0,0
19.10.2018 04:00:00 19,6 15,9 24 13 41 22 E 1014,7 - 0,0
19.10.2018 03:00:00 20,0 16,2 26 14 36 19 ESE 1014,5 - 0,0
19.10.2018 02:00:00 19,9 15,7 21 11 31 17 ESE 1014,6 - 0,0
19.10.2018 01:00:00 20,0 15,6 22 12 35 19 ESE 1014,6 - 0,0
19.10.2018 00:00:00 20,0 16,0 21 11 28 15 E 1014,4 - 0,0
18.10.2018 23:00:00 19,7 16,2 16 9 25 13 E 1014,4 - 0,0
18.10.2018 22:00:00 19,5 16,5 16 8 25 13 ESE 1014,3 - 0,0
18.10.2018 21:00:00 19,4 16,2 13 7 21 12 ESE 1014,0 - 0,0
18.10.2018 20:00:00 19,4 15,7 14 7 22 12 E 1013,5 - 0,0
18.10.2018 19:00:00 19,2 14,5 15 8 22 12 ESE 1013,0 - 0,0
18.10.2018 18:00:00 20,7 15,0 13 7 27 15 E 1012,7 - 0,0
18.10.2018 17:00:00 21,5 15,3 19 10 30 16 E 1012,5 15 0,0
18.10.2018 16:00:00 22,3 15,4 18 10 37 20 ESE 1012,4 - 0,0
18.10.2018 15:00:00 21,9 16,2 27 14 43 23 E 1012,9 - 0,0
18.10.2018 14:00:00 21,7 16,0 23 12 33 18 E 1013,2 15 0,0
18.10.2018 13:00:00 21,8 16,3 21 11 34 18 E 1014,0 - 0,0
18.10.2018 12:00:00 21,1 16,9 22 12 32 18 E 1014,2 - 0,0
18.10.2018 11:00:00 21,9 16,2 16 9 31 17 E 1014,0 15 0,0
18.10.2018 10:00:00 21,5 16,9 12 6 37 20 E 1014,3 - 0,0
18.10.2018 09:00:00 20,7 16,7 17 9 31 17 E 1014,0 - 0,0
18.10.2018 08:00:00 18,9 16,5 13 7 29 16 E 1013,5 10 0,0
18.10.2018 07:00:00 18,9 16,5 18 10 42 23 E 1013,3 - 0,0
18.10.2018 06:00:00 19,1 16,5 27 14 45 24 ESE 1013,0 - 0,0
18.10.2018 05:00:00 18,9 16,3 23 13 41 22 E 1013,0 10 0,0
18.10.2018 04:00:00 19,2 16,6 19 10 39 21 E 1013,6 - 0,0
18.10.2018 03:00:00 18,9 16,5 26 14 37 20 ESE 1014,0 - 0,0
18.10.2018 02:00:00 19,1 16,5 19 10 39 21 E 1014,8 - 0,4
18.10.2018 01:00:00 20,1 16,5 28 15 44 24 E 1014,9 - 0,2
18.10.2018 00:00:00 20,1 16,1 29 16 44 24 E 1014,8 - 0,0
17.10.2018 23:00:00 20,1 16,1 29 16 46 25 E 1015,2 - 0,0
17.10.2018 22:00:00 19,9 16,1 28 15 41 22 E 1015,0 - 0,0
17.10.2018 21:00:00 19,5 16,2 16 9 46 25 ESE 1015,3 - 0,0
17.10.2018 20:00:00 19,4 16,8 24 13 41 22 E 1014,9 - 0,0
17.10.2018 19:00:00 19,4 16,4 26 14 45 25 ESE 1014,6 - 0,0
17.10.2018 18:00:00 19,1 16,3 18 10 42 23 E 1014,6 - 0,0
17.10.2018 17:00:00 19,5 15,6 34 18 46 25 SE 1014,6 10 0,0
17.10.2018 16:00:00 19,7 17,1 20 11 44 24 E 1014,7 - 0,0
17.10.2018 15:00:00 19,9 17,1 27 15 53 29 E 1014,5 - 0,0
17.10.2018 14:00:00 20,3 18,1 22 12 51 28 E 1014,9 10 0,2
17.10.2018 13:00:00 19,3 17,4 31 17 46 25 E 1015,5 - 0,0
17.10.2018 12:00:00 18,9 17,0 28 15 44 24 ESE 1016,1 - 4,7
17.10.2018 11:00:00 18,9 16,9 16 9 35 19 ESE 1016,1 10 1,6
17.10.2018 10:00:00 19,1 16,1 18 10 40 22 ESE 1016,2 - 0,0
17.10.2018 09:00:00 19,4 16,1 25 14 46 25 ESE 1016,0 - 0,0
17.10.2018 08:00:00 19,9 16,7 17 9 51 27 E 1015,7 10 0,0
17.10.2018 07:00:00 19,4 16,2 34 18 51 28 ESE 1015,2 - 0,0
17.10.2018 06:00:00 19,2 16,8 27 14 45 24 ESE 1015,5 - 0,0
17.10.2018 05:00:00 19,5 17,3 29 16 43 23 E 1015,6 10 0,0
17.10.2018 04:00:00 19,7 17,5 24 13 45 24 ESE 1016,0 - 0,0
17.10.2018 03:00:00 19,5 17,5 20 11 35 19 ESE 1016,5 - 0,0
17.10.2018 02:00:00 19,6 17,6 22 12 38 21 E 1016,6 - 0,0
17.10.2018 01:00:00 19,4 17,2 23 12 43 23 E 1016,8 - 0,0
17.10.2018 00:00:00 19,3 17,1 21 12 48 26 E 1017,0 - 0,0
16.10.2018 23:00:00 19,5 16,9 34 19 53 29 ESE 1017,1 - 0,0
16.10.2018 22:00:00 18,9 16,7 27 14 47 25 E 1017,0 - 0,0
16.10.2018 21:00:00 18,6 16,7 34 18 66 35 E 1017,4 - 1,0
16.10.2018 20:00:00 19,5 16,3 53 28 72 39 ENE 1016,5 - 0,0
16.10.2018 19:00:00 19,5 16,9 48 26 65 35 ENE 1016,2 - 2,8
16.10.2018 18:00:00 20,0 16,6 39 21 56 30 ENE 1016,7 - 0,0
16.10.2018 17:00:00 20,0 15,4 41 22 63 34 E 1016,4 10 0,0
16.10.2018 16:00:00 19,5 16,0 36 19 53 28 ENE 1016,5 - 0,0

tt = Température de l'air
td = dewpoint
ff = Vitesse du vent
fx = gusts
dd = Direction du vent
ppp = reduced air pressure
vv = visibility
rr = Quantités de précipitations

stations d'obs. à proximité